Weather History for Lincoln, NE

Change the Weather History Date:

Wednesday, February 13, 2013

  Actual Average Record
Temperature  
Mean Temperature 38 °F 28 °F  
Max Temperature 55 °F 39 °F 69 °F (1967)
Min Temperature 21 °F 17 °F -26 °F (1905)
Degree Days  
Heating Degree Days 27 37  
Month to date heating degree days 401 497  
Since 1 July heating degree days 4056 4194  
Cooling Degree Days 0 0  
Month to date cooling degree days 0 0  
Year to date cooling degree days 0 0  
Moisture  
Dew Point 24 °F    
Average Humidity 59    
Maximum Humidity 88    
Minimum Humidity 29    
Precipitation  
Precipitation 0.00 in 0.03 in 1.36 in (1919)
Month to date precipitation 0.05 0.34  
Year to date precipitation 0.78 0.98  
Snow  
Snow 0.00 in 0.20 in - ()
Month to date snowfall T 2.8  
Since 1 July snowfall 11.3 16.9  
Snow Depth 0.00 in    
Sea Level Pressure  
Sea Level Pressure 29.86 in    
Wind  
Wind Speed 6 mph (West)    
Max Wind Speed 20 mph    
Max Gust Speed 23 mph    
Visibility 10 miles    
Events      
T = Trace of Precipitation, MM = Missing Value Source: NWS Daily Summary

Daily Weather History Graph

Daily Weather History Graph

Search for Another Location

Airport:

Trip Planner

Search our weather history database for the weather conditions in past years. The results will help you decide how hot, cold, wet, or windy it might be!

Date:

Astronomy

Feb. 13, 2013 Rise Set
Actual Time 7:23 AM CST 5:59 PM CST
Civil Twilight 6:55 AM CST 6:27 PM CST
Nautical Twilight 6:23 AM CST 7:00 PM CST
Astronomical Twilight 5:51 AM CST 7:31 PM CST
Moon 8:51 AM CST (2/13) 10:05 PM CST (2/13)
Length of Visible Light 11h 32m
Length of Day
10h 36m
Waxing Crescent, 14% of the Moon is Illuminated
Feb 13
Waxing Crescent
Feb 17
First Quarter
Feb 25
Full
Mar 4
Last Quarter
Mar 11
New

Hourly Weather History & Observations

Time (CST) Temp. Windchill Dew Point Humidity Pressure Visibility Wind Dir Wind Speed Gust Speed Precip Events Conditions
12:54 AM 28.9 °F - 21.0 °F 72% 29.96 in 10.0 mi Calm Calm - N/A   Clear
1:54 AM 28.9 °F 25.2 °F 21.0 °F 72% 29.95 in 10.0 mi WSW 3.5 mph - N/A   Clear
2:54 AM 28.0 °F 24.2 °F 21.0 °F 75% 29.94 in 10.0 mi WSW 3.5 mph - N/A   Clear
3:54 AM 26.1 °F - 19.9 °F 78% 29.93 in 10.0 mi Calm Calm - N/A   Clear
4:54 AM 24.1 °F - 19.9 °F 84% 29.91 in 10.0 mi Calm Calm - N/A   Clear
5:54 AM 24.1 °F - 19.9 °F 84% 29.91 in 10.0 mi Calm Calm - N/A   Clear
6:54 AM 23.0 °F - 19.0 °F 85% 29.92 in 10.0 mi Calm Calm - N/A   Clear
7:54 AM 26.1 °F - 21.9 °F 84% 29.91 in 10.0 mi Calm Calm - N/A   Clear
8:54 AM 30.9 °F 26.2 °F 26.1 °F 82% 29.92 in 10.0 mi WSW 4.6 mph - N/A   Clear
9:54 AM 35.1 °F - 27.0 °F 72% 29.91 in 10.0 mi Calm Calm - N/A   Clear
10:54 AM 42.1 °F 40.2 °F 27.0 °F 55% 29.89 in 10.0 mi SW 3.5 mph - N/A   Clear
11:54 AM 48.0 °F - 27.0 °F 44% 29.88 in 10.0 mi WSW 10.4 mph - N/A   Clear
12:54 PM 50.0 °F - 25.0 °F 38% 29.84 in 10.0 mi WSW 11.5 mph - N/A   Clear
1:54 PM 53.1 °F - 26.1 °F 35% 29.81 in 10.0 mi West 15.0 mph - N/A   Clear
2:54 PM 54.0 °F - 23.0 °F 30% 29.79 in 10.0 mi West 16.1 mph - N/A   Clear
3:54 PM 54.0 °F - 23.0 °F 30% 29.78 in 10.0 mi WSW 16.1 mph - N/A   Clear
4:54 PM 52.0 °F - 24.1 °F 34% 29.78 in 10.0 mi West 10.4 mph - N/A   Partly Cloudy
5:54 PM 50.0 °F - 25.0 °F 38% 29.78 in 10.0 mi West 8.1 mph - N/A   Clear
6:54 PM 48.0 °F - 26.1 °F 42% 29.80 in 10.0 mi West 9.2 mph - N/A   Mostly Cloudy
7:54 PM 43.0 °F 38.2 °F 27.0 °F 53% 29.81 in 10.0 mi West 8.1 mph - N/A   Clear
8:54 PM 42.1 °F 36.6 °F 27.0 °F 55% 29.81 in 10.0 mi West 9.2 mph - N/A   Clear
9:54 PM 39.9 °F 37.8 °F 27.0 °F 60% 29.81 in 10.0 mi WNW 3.5 mph - N/A   Clear
10:54 PM 41.0 °F 37.1 °F 28.0 °F 60% 29.82 in 10.0 mi West 5.8 mph - N/A   Overcast
11:54 PM 42.1 °F 35.7 °F 28.0 °F 58% 29.84 in 10.0 mi NW 11.5 mph - N/A   Mostly Cloudy